Tracking 19281 objects as of 16-Nov-2018
HD Live streaming from Space Station
objects crossing your sky now

INTERCOSMOS 25

Track INTERCOSMOS 25 now!
10-day predictions
INTERCOSMOS 25 is classified as:


NORAD ID: 21819
Int'l Code: 1991-086A
Perigee: 446.2 km
Apogee: 2,885.5 km
Inclination: 82.6 °
Period: 119.5 minutes
Semi major axis: 8036 km
RCS: 7.3989 m2 (large)
Launch date: December 18, 1991
Source: Commonwealth of Independent States (former USSR) (CIS)
Launch site: PLESETSK MISSILE AND SPACE COMPLEX (PKMTR)
aabbcc
Your satellite tracking list
Your tracking list is empty




NASA's NSSDC Master Catalog

Two Line Element Set (TLE):
1 21819U 91086A   18319.90354260  .00000241  00000-0  41376-4 0  9998
2 21819  82.5921 113.2663 1517619  66.6611 308.6627 12.04967045174505
Source of the keplerian elements: AFSPC